[[{"header":{"parameterUnit":"m.s-1","parameterCategory":2,"la1":30.2991,"la2":30.254,"lo1":-89.0895,"lo2":-89.0444,"dy":0.0017,"dx":0.0017,"nx":28,"ny":28,"refTime":"2023-11-17T09:00:00:Z","depth":"0","parameterNumber":2,"parameterNumberName":"U-component_of_CURRENTS"},"data":[0,0,0,0,0,0,0,0,0,0,0,0,0,0,0,0,0,0,0,0,0,0,0,0,0,0,0,0,0,0,0,0,0,0,0,0,0,0,0,0,0,0,0,0,0,0,0,0,0,0,0,0,0,0,0,0,0,0,0.3659,0.3659,0,0.3645,0.3645,0.3644,0.3626,0.3626,0.3626,0.3626,0.3601,0.3601,0.36,0,0,0,0,0,0,0,0,0,0,0,0,0,0.3681,0.3681,0.3659,0.3659,0.3659,0.3645,0.3645,0.3644,0.3626,0.3626,0.3626,0.3626,0.3601,0.3601,0.36,0,0,0,0,0,0,0,0,0,0,0,0,0,0.3668,0.3681,0.3659,0.365,0.3649,0.3645,0.3645,0.3644,0.3626,0.3626,0.3626,0.3626,0.3602,0.3601,0.36,0.36,0,0,0.3598,0.3597,0,0,0,0,0,0,0,0,0.3669,0.3667,0.3651,0.365,0.3649,0.3639,0.3644,0.3629,0.3626,0.3633,0.3626,0.3626,0.3614,0.3612,0.3608,0.3599,0.3598,0.3598,0.3597,0.3597,0.3597,0,0,0,0,0,0,0,0.367,0.3668,0.3652,0.3651,0.365,0.365,0.3647,0.3641,0.3624,0.3633,0.3632,0.3633,0.3613,0.3609,0.3607,0.3597,0.3598,0.3597,0.3597,0.3596,0.3652,0.3654,0,0,0,0,0,0,0.3675,0.3669,0.3652,0.3652,0.3661,0.365,0.3647,0.3641,0.3624,0.3622,0.3633,0.3632,0.361,0.3608,0.3606,0.3643,0.3597,0.3596,0.3596,0.365,0.3653,0.3655,0,0,0,0,0,0,0.3675,0.3673,0.3653,0.3662,0.3659,0.365,0.3643,0.3641,0.3644,0.3624,0.3622,0.3639,0.361,0.3607,0.3624,0.3641,0.3596,0.3595,0.3648,0.3651,0.3654,0.3692,0,0,0,0,0,0,0.3675,0.3673,0.3676,0.3662,0.3659,0.3671,0.3643,0.3641,0.3645,0.3644,0.3629,0.3626,0.3609,0.3625,0.3623,0.3639,0.3595,0.3646,0.3649,0.3653,0.3689,0.3696,0.3703,0,0,0,0,0,0.3676,0.3682,0.3676,0.3674,0.3661,0.3673,0.3672,0.3663,0.3646,0.3661,0.3653,0.3627,0.3647,0.3626,0.3623,0.3639,0.3644,0.3648,0.3653,0.3685,0.3695,0.3703,0,0,0,0,0,0,0.3689,0.3681,0.3673,0.3675,0.3683,0.3671,0.3677,0.367,0.3674,0.3669,0.3646,0.3644,0.3669,0.3655,0.3633,0.3671,0.3643,0.3647,0.367,0.3678,0.3685,0.3705,0.3594,0,0,0,0,0,0.3695,0.3699,0.3694,0.3699,0.3699,0.3689,0.3692,0.3689,0.3687,0.3687,0.3676,0.3673,0.3684,0.3682,0.3689,0.3701,0.3709,0.3714,0.3721,0.3727,0.3745,0.3792,0.3805,0.3669,0.3669,0.3669,0,0,0.3704,0.3697,0.3701,0.3703,0.3699,0.3711,0.369,0.3701,0.3715,0.3685,0.3698,0.3699,0.3697,0.3718,0.3727,0.3706,0.3767,0.3733,0.3737,0.3753,0.3798,0.3811,0.3822,0.3672,0.3672,0.3671,0,0,0.3719,0.3714,0.3721,0.373,0.3735,0.3734,0.3742,0.3738,0.3742,0.3759,0.3748,0.377,0.3763,0.3777,0.3779,0.3834,0.381,0.3827,0.3866,0.3911,0.3922,0.3932,0.394,0.3951,0.3822,0.3822,0.3822,0,0.3726,0.3728,0.373,0.3738,0.3745,0.3746,0.3759,0.3771,0.3777,0.3789,0.3772,0.3802,0.3798,0.3837,0.3858,0.3849,0.3857,0.3826,0.3919,0.393,0.3939,0.3945,0.3956,0.3824,0.3824,0.3824,0.3823,0,0.3748,0.375,0.3755,0.3764,0.3782,0.3794,0.3809,0.3831,0.3829,0.3837,0.3877,0.3882,0.3903,0.3903,0.3892,0.3959,0.3935,0.3927,0.3893,0.3955,0.3957,0.3968,0.3828,0.3827,0.3826,0.3825,0,0,0.3741,0.3765,0.376,0.3771,0.3792,0.3807,0.3844,0.3875,0.3902,0.3918,0.3956,0.3982,0.3988,0.3996,0.399,0.4024,0.4089,0.4004,0.4005,0.4002,0.4165,0.4042,0.4042,0.4093,0.4096,0.4098,0.413,0,0.3747,0.3768,0.3777,0.3804,0.3819,0.3841,0.3876,0.3913,0.3938,0.3982,0.4006,0.404,0.4021,0.4034,0.4072,0.4093,0.4124,0.408,0.4114,0.4114,0.3991,0.4053,0.39,0.3907,0.414,0.4142,0.4144,0,0.3747,0.3766,0.3785,0.3826,0.3833,0.3854,0.3911,0.3943,0.4012,0.4035,0.4083,0.4101,0.4164,0.4137,0.4209,0.418,0.4186,0.4192,0.4193,0.4078,0.4014,0.3889,0.3918,0.385,0.416,0.4159,0.4157,0,0.3731,0.3763,0.3778,0.379,0.3841,0.386,0.3892,0.3956,0.3987,0.4074,0.4112,0.4179,0.4215,0.4254,0.4275,0.4247,0.4347,0.4305,0.4199,0.4188,0.4066,0.4039,0.4027,0.4369,0.4368,0.4368,0.4368,0,0.3718,0.373,0.3772,0.3779,0.3813,0.3856,0.3893,0.3945,0.4016,0.4063,0.4137,0.4184,0.4251,0.4307,0.4314,0.4292,0.4381,0.4222,0.4201,0.407,0.4046,0.3985,0.3952,0.437,0.4369,0.4369,0.4369,0,0.3682,0.3706,0.3727,0.3779,0.3798,0.3819,0.3877,0.3911,0.3993,0.4063,0.4095,0.4202,0.4264,0.4319,0.4381,0.432,0.4201,0.4298,0.412,0.4076,0.3841,0.3815,0.3638,0.3531,0.4153,0.415,0.4148,0,0.3664,0.3673,0.371,0.3721,0.3736,0.3777,0.3805,0.3884,0.3921,0.4059,0.4091,0.419,0.4254,0.4296,0.4217,0.4197,0.4123,0.4011,0.3923,0.382,0.3778,0.3647,0.3561,0.3775,0.377,0.3766,0.3762,0,0.3648,0.3651,0.3664,0.3677,0.3696,0.3724,0.3774,0.3797,0.3898,0.395,0.4026,0.4097,0.4146,0.4039,0.4016,0.3982,0.3808,0.3917,0.3881,0.3539,0.3329,0.3217,0.3748,0.3725,0.3729,0.3732,0.3734,0.3735,0.3634,0.3622,0.363,0.3626,0.364,0.3654,0.3625,0.3684,0.3709,0.3733,0.3878,0.3882,0.3874,0.3796,0.3752,0.3533,0.3521,0.3399,0.3394,0.3285,0.3117,0.3538,0.3443,0.3445,0.3447,0.3448,0.345,0,0.361,0.3596,0.3593,0.3558,0.351,0.3559,0.3578,0.351,0.3464,0.3546,0.3558,0.3498,0.3418,0.3396,0.3213,0.3061,0.2935,0.2974,0.2802,0.2758,0.321,0.3132,0.2878,0.2878,0.2878,0.2878,0.2878,0.2878,0.36,0.3572,0.3541,0.3432,0.3392,0.3277,0.3248,0.3181,0.3184,0.3071,0.2997,0.3019,0.3103,0.3019,0.2861,0.2785,0.2607,0.2433,0.2457,0.2844,0.2885,0.2924,0.2846,0.2536,0.2535,0.1897,0.1892,0.1889]},{"header":{"parameterUnit":"m.s-1","parameterCategory":2,"la1":30.2991,"la2":30.254,"lo1":-89.0895,"lo2":-89.0444,"dy":0.0017,"dx":0.0017,"nx":28,"ny":28,"refTime":"2023-11-17T09:00:00:Z","depth":"0","parameterNumber":3,"parameterNumberName":"V-component_of_CURRENTS"},"data":[0,0,0,0,0,0,0,0,0,0,0,0,0,0,0,0,0,0,0,0,0,0,0,0,0,0,0,0,0,0,0,0,0,0,0,0,0,0,0,0,0,0,0,0,0,0,0,0,0,0,0,0,0,0,0,0,0,0,-0.0148,-0.0148,0,-0.0171,-0.0171,-0.0172,-0.0192,-0.0192,-0.0192,-0.0192,-0.0256,-0.0258,-0.0259,0,0,0,0,0,0,0,0,0,0,0,0,0,-0.0142,-0.0142,-0.0148,-0.0148,-0.0148,-0.0171,-0.0171,-0.0172,-0.0192,-0.0192,-0.0192,-0.0192,-0.0256,-0.0258,-0.026,0,0,0,0,0,0,0,0,0,0,0,0,0,-0.0154,-0.0142,-0.0148,-0.0159,-0.0161,-0.0171,-0.0171,-0.0172,-0.0192,-0.0192,-0.0192,-0.0192,-0.0255,-0.0257,-0.026,-0.0274,0,0,-0.0267,-0.0269,0,0,0,0,0,0,0,0,-0.0154,-0.0155,-0.0158,-0.0159,-0.016,-0.0177,-0.0193,-0.0208,-0.0192,-0.0182,-0.0192,-0.0192,-0.0232,-0.0236,-0.0243,-0.0277,-0.028,-0.0268,-0.0269,-0.027,-0.0271,0,0,0,0,0,0,0,-0.0153,-0.0154,-0.0159,-0.0158,-0.0159,-0.017,-0.0172,-0.0196,-0.0209,-0.0183,-0.0184,-0.0183,-0.0233,-0.024,-0.0245,-0.0281,-0.0268,-0.027,-0.0271,-0.0272,-0.034,-0.0341,0,0,0,0,0,0,-0.0145,-0.0153,-0.0159,-0.016,-0.0155,-0.017,-0.0172,-0.0173,-0.0208,-0.0212,-0.0183,-0.0184,-0.0236,-0.0242,-0.0247,-0.0256,-0.027,-0.0273,-0.0274,-0.034,-0.034,-0.0341,0,0,0,0,0,0,-0.0144,-0.0145,-0.0158,-0.0155,-0.0157,-0.017,-0.0171,-0.0173,-0.018,-0.0207,-0.0213,-0.0186,-0.0236,-0.0243,-0.0269,-0.0259,-0.0274,-0.0276,-0.034,-0.034,-0.034,-0.0281,0,0,0,0,0,0,-0.0144,-0.0145,-0.0148,-0.0155,-0.0157,-0.0162,-0.017,-0.0174,-0.0178,-0.018,-0.0211,-0.0217,-0.0237,-0.0265,-0.0271,-0.0263,-0.0278,-0.0339,-0.034,-0.034,-0.0283,-0.028,-0.0277,0,0,0,0,0,-0.0144,-0.0145,-0.0148,-0.0149,-0.0159,-0.0162,-0.0164,-0.0175,-0.0178,-0.0181,-0.0203,-0.0216,-0.0273,-0.0267,-0.0275,-0.0267,-0.0339,-0.034,-0.034,-0.0284,-0.028,-0.0277,0,0,0,0,0,0,-0.015,-0.0147,-0.015,-0.0153,-0.0156,-0.0164,-0.0164,-0.0172,-0.0192,-0.0191,-0.0221,-0.0229,-0.0245,-0.0271,-0.0263,-0.0291,-0.0308,-0.031,-0.0263,-0.026,-0.0257,-0.0231,-0.028,0,0,0,0,0,-0.015,-0.0147,-0.0149,-0.0152,-0.0147,-0.0156,-0.0159,-0.0163,-0.0177,-0.0185,-0.0206,-0.0232,-0.0254,-0.0268,-0.0291,-0.0308,-0.0316,-0.031,-0.0307,-0.0304,-0.029,-0.0303,-0.0299,-0.0343,-0.0343,-0.0343,0,0,-0.0157,-0.0151,-0.0154,-0.0152,-0.0152,-0.0141,-0.0158,-0.0155,-0.0149,-0.019,-0.0192,-0.022,-0.0257,-0.0271,-0.0282,-0.0291,-0.0295,-0.0305,-0.0302,-0.0289,-0.0303,-0.0299,-0.0295,-0.0343,-0.0343,-0.0343,0,0,-0.015,-0.0156,-0.0143,-0.0139,-0.013,-0.0133,-0.013,-0.0134,-0.0137,-0.0147,-0.0172,-0.0196,-0.023,-0.0251,-0.0268,-0.0266,-0.0277,-0.0275,-0.0239,-0.0252,-0.0248,-0.0245,-0.0237,-0.0234,-0.0276,-0.0276,-0.0276,0,-0.0154,-0.0134,-0.0142,-0.0121,-0.0109,-0.0125,-0.0102,-0.0111,-0.0125,-0.012,-0.0141,-0.0182,-0.0219,-0.023,-0.0231,-0.0257,-0.0257,-0.0246,-0.0246,-0.0243,-0.024,-0.0233,-0.023,-0.0273,-0.0273,-0.0273,-0.0274,0,-0.0128,-0.0112,-0.0101,-0.0076,-0.0073,-0.0055,-0.0058,-0.0057,-0.0064,-0.0071,-0.0081,-0.0133,-0.0155,-0.0176,-0.0204,-0.0203,-0.0206,-0.0236,-0.0247,-0.0231,-0.0226,-0.0224,-0.0269,-0.027,-0.0271,-0.0271,0,0,-0.0117,-0.0087,-0.0077,-0.0054,-0.004,-0.0029,-0.0017,-0.0001,0.0021,-0.0013,0.001,-0.0049,-0.0072,-0.0093,-0.0135,-0.0153,-0.0142,-0.018,-0.0182,-0.0158,-0.0147,-0.0145,-0.0143,-0.0167,-0.0166,-0.0166,-0.0146,0,-0.0082,-0.0029,-0.0025,0.002,0.0047,0.0043,0.006,0.0065,0.0063,0.0077,0.0027,0.0027,-0.0042,-0.0046,-0.0078,-0.0119,-0.0134,-0.0143,-0.0179,-0.0179,-0.0168,-0.014,-0.0105,-0.0083,-0.0144,-0.0143,-0.0143,0,-0.0043,-0.0009,0.0047,0.0086,0.01,0.0119,0.016,0.0174,0.018,0.0178,0.016,0.0129,0.0099,0.0036,-0.0026,-0.0024,-0.0077,-0.0118,-0.0119,-0.0134,-0.0173,-0.0114,-0.0077,-0.0213,-0.0139,-0.014,-0.014,0,-0.0006,0.0044,0.0096,0.011,0.0147,0.0174,0.0193,0.021,0.0246,0.0253,0.0284,0.0226,0.0221,0.014,0.0052,0.0019,-0.0004,-0.0065,-0.0114,-0.0114,-0.0099,-0.0098,-0.0185,-0.0107,-0.0107,-0.0107,-0.0107,0,0.0042,0.0082,0.0119,0.0153,0.0218,0.022,0.0292,0.0302,0.0338,0.041,0.0344,0.0386,0.0248,0.0215,0.0107,0.0025,0.0037,-0.0088,-0.0106,-0.0078,-0.0076,-0.0208,-0.0295,-0.0106,-0.0106,-0.0106,-0.0106,0,0.0077,0.0104,0.0167,0.022,0.0242,0.0291,0.0367,0.0417,0.0441,0.0536,0.0551,0.052,0.0492,0.0365,0.0253,0.0117,-0.0045,-0.0012,0.0043,0.0031,-0.017,-0.0255,-0.0352,-0.0419,-0.0069,-0.0069,-0.0068,0,0.01,0.0134,0.0222,0.0272,0.0304,0.0375,0.0432,0.047,0.0541,0.0636,0.0696,0.0692,0.074,0.0572,0.0342,0.0177,0.0012,0.0047,-0.0031,-0.0159,-0.0267,-0.0338,-0.0393,0.0018,0.0019,0.0019,0.002,0,0.0134,0.0168,0.0231,0.0339,0.0413,0.05,0.059,0.0668,0.0747,0.0857,0.099,0.1043,0.089,0.0742,0.0476,0.0324,-0.0049,0.0054,-0.0094,-0.0212,-0.0278,-0.0357,-0.0011,0.0026,0.0026,0.0025,0.0025,0.0025,0.0159,0.0215,0.0304,0.0411,0.0508,0.0633,0.0728,0.0854,0.102,0.1222,0.1232,0.1382,0.1096,0.0753,0.0505,0.0045,0.0008,-0.0111,-0.02,-0.0258,-0.0337,0.0032,0.005,0.0049,0.0049,0.0048,0.0048,0,0.0193,0.0261,0.0362,0.0512,0.0642,0.0672,0.0842,0.0966,0.1205,0.1421,0.1584,0.1585,0.124,0.082,0.0199,-0.0146,-0.0294,-0.034,-0.0442,-0.0488,-0.016,-0.0172,-0.0181,-0.0181,-0.0181,-0.0181,-0.0181,-0.018,0.0215,0.0316,0.0381,0.0601,0.0713,0.0884,0.0992,0.12,0.1391,0.1706,0.1863,0.1941,0.1635,0.0528,-0.0231,-0.0419,-0.0664,-0.0707,-0.0851,-0.0641,-0.0627,-0.0613,-0.0646,-0.0754,-0.0754,-0.1128,-0.1132,-0.1135]}],[{"header":{"parameterUnit":"m.s-1","parameterCategory":2,"la1":30.2991,"la2":30.254,"lo1":-89.0895,"lo2":-89.0444,"dy":0.0017,"dx":0.0017,"nx":28,"ny":28,"refTime":"2023-11-17T09:00:00:Z","depth":"2","parameterNumber":2,"parameterNumberName":"U-component_of_CURRENTS"},"data":[0,0,0,0,0,0,0,0,0,0,0,0,0,0,0,0,0,0,0,0,0,0,0,0,0,0,0,0,0,0,0,0,0,0,0,0,0,0,0,0,0,0,0,0,0,0,0,0,0,0,0,0,0,0,0,0,0,0,0.2417,0.2417,0,0.2451,0.2451,0.2452,0.2472,0.2472,0.2472,0.2472,0.2475,0.2475,0.2475,0,0,0,0,0,0,0,0,0,0,0,0,0,0.2428,0.2427,0.2417,0.2417,0.2418,0.2451,0.2451,0.2452,0.2472,0.2472,0.2472,0.2472,0.2475,0.2475,0.2475,0,0,0,0,0,0,0,0,0,0,0,0,0,0.2438,0.2427,0.2417,0.2432,0.2434,0.2451,0.2451,0.2452,0.2472,0.2472,0.2472,0.2472,0.2475,0.2475,0.2475,0.2472,0,0,0.2475,0.2475,0,0,0,0,0,0,0,0,0.2437,0.2438,0.2429,0.2431,0.2433,0.2457,0.2456,0.2457,0.2472,0.2457,0.2472,0.2472,0.2466,0.2467,0.2474,0.2472,0.2472,0.2475,0.2475,0.2475,0.2475,0,0,0,0,0,0,0,0.2437,0.2437,0.243,0.243,0.2432,0.2457,0.2458,0.2457,0.246,0.2459,0.246,0.2464,0.2467,0.2474,0.2474,0.2473,0.2475,0.2475,0.2475,0.2475,0.2533,0.2534,0,0,0,0,0,0,0.2429,0.2436,0.2429,0.2431,0.2436,0.2456,0.2458,0.2449,0.2461,0.2463,0.2464,0.2465,0.2474,0.2474,0.2474,0.2527,0.2475,0.2475,0.2475,0.2531,0.2533,0.2535,0,0,0,0,0,0,0.2429,0.2428,0.2428,0.2435,0.2437,0.2456,0.2446,0.245,0.2485,0.2465,0.2467,0.2499,0.2474,0.2474,0.2508,0.2525,0.2475,0.2475,0.253,0.2532,0.2534,0.2596,0,0,0,0,0,0,0.2429,0.2427,0.2441,0.2434,0.2436,0.2456,0.2446,0.2451,0.2485,0.2488,0.2495,0.2494,0.2474,0.2508,0.2508,0.2524,0.2475,0.2528,0.2531,0.2533,0.2592,0.26,0.2607,0,0,0,0,0,0.2429,0.2441,0.2441,0.2442,0.2446,0.2457,0.2461,0.2475,0.2487,0.2507,0.2522,0.2495,0.2525,0.251,0.2509,0.2525,0.2526,0.253,0.2533,0.2589,0.2599,0.2607,0,0,0,0,0,0,0.2442,0.2444,0.2444,0.2453,0.2463,0.2461,0.2477,0.2496,0.2524,0.2524,0.252,0.2521,0.2554,0.2538,0.2521,0.2552,0.2519,0.2522,0.2561,0.2571,0.2578,0.2574,0.2475,0,0,0,0,0,0.2453,0.2459,0.2464,0.2467,0.2473,0.2484,0.2499,0.2504,0.2517,0.2531,0.2533,0.254,0.2563,0.2568,0.2571,0.2592,0.2593,0.2601,0.2608,0.2615,0.2612,0.266,0.2671,0.2546,0.2546,0.2546,0,0,0.245,0.2455,0.2456,0.2471,0.2473,0.2496,0.2493,0.2507,0.2536,0.2525,0.256,0.2568,0.2578,0.2601,0.2613,0.2592,0.2651,0.2619,0.2625,0.2618,0.2665,0.2677,0.2688,0.2549,0.2548,0.2548,0,0,0.2454,0.2457,0.2474,0.249,0.2505,0.2511,0.2526,0.2535,0.2553,0.2593,0.2593,0.2623,0.2642,0.2651,0.2664,0.2719,0.2694,0.2712,0.274,0.2787,0.2798,0.2807,0.2821,0.2831,0.271,0.271,0.2711,0,0.2463,0.2466,0.2481,0.2508,0.2512,0.2526,0.2541,0.2573,0.2594,0.2607,0.2611,0.2664,0.267,0.2719,0.2735,0.2735,0.2744,0.2705,0.2797,0.2807,0.2815,0.2827,0.2837,0.2714,0.2713,0.2713,0.2713,0,0.2477,0.2491,0.2496,0.2529,0.2552,0.2551,0.2588,0.2614,0.2636,0.2659,0.2709,0.2729,0.2765,0.2769,0.2772,0.2829,0.281,0.2807,0.2773,0.2831,0.284,0.285,0.2719,0.2717,0.2716,0.2716,0,0,0.2452,0.2497,0.2499,0.252,0.2549,0.257,0.2612,0.2647,0.2697,0.2722,0.2776,0.282,0.2833,0.2849,0.2854,0.2881,0.2953,0.2867,0.2868,0.2878,0.3036,0.2974,0.2977,0.2968,0.297,0.2972,0.3017,0,0.2448,0.2488,0.2511,0.2549,0.2566,0.2591,0.2643,0.269,0.2729,0.2789,0.2819,0.2872,0.2869,0.289,0.293,0.2948,0.2981,0.2939,0.298,0.298,0.2916,0.2988,0.2746,0.2762,0.3026,0.3027,0.3028,0,0.2451,0.2474,0.2501,0.2559,0.2571,0.261,0.2673,0.272,0.2805,0.2837,0.2891,0.2926,0.2982,0.2972,0.3048,0.3021,0.304,0.3043,0.3045,0.2969,0.2936,0.2748,0.2769,0.3044,0.3043,0.3042,0.3041,0,0.2417,0.2469,0.2483,0.2499,0.2575,0.2601,0.2642,0.2726,0.2776,0.286,0.2909,0.2983,0.3035,0.3071,0.3107,0.3084,0.3176,0.315,0.3106,0.31,0.2892,0.2865,0.3209,0.3209,0.3209,0.3209,0.3209,0,0.2391,0.2409,0.2478,0.249,0.2531,0.2597,0.266,0.271,0.2806,0.2863,0.2937,0.2995,0.3066,0.3131,0.3138,0.3161,0.3218,0.3121,0.3119,0.2906,0.2881,0.3119,0.3108,0.3211,0.321,0.321,0.321,0,0.2348,0.2383,0.2412,0.2488,0.2515,0.2547,0.2646,0.2699,0.2798,0.2873,0.2898,0.3027,0.3098,0.3161,0.3223,0.3204,0.3216,0.3209,0.294,0.2906,0.3092,0.3084,0.3151,0.315,0.3148,0.3147,0.3146,0,0.2317,0.2335,0.24,0.2415,0.2443,0.2507,0.2549,0.2659,0.2707,0.2874,0.2895,0.3023,0.3077,0.3162,0.3143,0.3149,0.3212,0.2919,0.2833,0.3101,0.3092,0.3086,0.308,0.2576,0.257,0.2566,0.2562,0,0.2266,0.2299,0.2325,0.2357,0.2392,0.2427,0.2493,0.2531,0.2658,0.2737,0.2824,0.2888,0.2996,0.29,0.2942,0.2906,0.2895,0.2827,0.3196,0.2635,0.2564,0.2554,0.2565,0.2522,0.2526,0.2529,0.2531,0.2533,0.2223,0.2225,0.227,0.2282,0.232,0.232,0.2317,0.2387,0.2441,0.2515,0.2657,0.2675,0.2717,0.2654,0.2574,0.2515,0.2711,0.257,0.2581,0.2598,0.253,0.2462,0.2386,0.2389,0.2392,0.2394,0.2396,0,0.2165,0.2175,0.2192,0.2191,0.2182,0.2241,0.2259,0.2222,0.2216,0.2316,0.2372,0.2218,0.218,0.2226,0.2079,0.2078,0.2033,0.1983,0.1896,0.194,0.1978,0.1875,0.1558,0.1556,0.1553,0.155,0,0,0.2135,0.2111,0.2105,0.2047,0.206,0.1993,0.1975,0.1931,0.1948,0.1916,0.1921,0.21,0.2177,0.1846,0.18,0.1651,0.1777,0.1584,0.2263,0.2207,0.224,0.2332,0.2226,0,0,0,0,0]},{"header":{"parameterUnit":"m.s-1","parameterCategory":2,"la1":30.2991,"la2":30.254,"lo1":-89.0895,"lo2":-89.0444,"dy":0.0017,"dx":0.0017,"nx":28,"ny":28,"refTime":"2023-11-17T09:00:00:Z","depth":"2","parameterNumber":3,"parameterNumberName":"V-component_of_CURRENTS"},"data":[0,0,0,0,0,0,0,0,0,0,0,0,0,0,0,0,0,0,0,0,0,0,0,0,0,0,0,0,0,0,0,0,0,0,0,0,0,0,0,0,0,0,0,0,0,0,0,0,0,0,0,0,0,0,0,0,0,0,0.0272,0.0272,0,0.023,0.023,0.0229,0.0192,0.0192,0.0192,0.0191,0.0133,0.0131,0.013,0,0,0,0,0,0,0,0,0,0,0,0,0,0.0269,0.027,0.0272,0.0272,0.0272,0.023,0.023,0.0229,0.0192,0.0192,0.0192,0.0191,0.0133,0.0131,0.013,0,0,0,0,0,0,0,0,0,0,0,0,0,0.0252,0.027,0.0272,0.0249,0.0247,0.0231,0.023,0.0229,0.0192,0.0192,0.0191,0.0191,0.0133,0.0132,0.013,0.0127,0,0,0.0124,0.0123,0,0,0,0,0,0,0,0,0.0253,0.0252,0.0253,0.0251,0.0248,0.0217,0.0207,0.0194,0.0192,0.0212,0.0191,0.0191,0.0161,0.0156,0.0148,0.0124,0.0121,0.0124,0.0122,0.0122,0.0121,0,0,0,0,0,0,0,0.0254,0.0253,0.0254,0.0253,0.025,0.0223,0.0221,0.0204,0.0188,0.021,0.0207,0.0205,0.0159,0.015,0.0146,0.0121,0.0124,0.0122,0.0121,0.012,0.0086,0.0086,0,0,0,0,0,0,0.0266,0.0255,0.0256,0.0253,0.0251,0.0224,0.0221,0.0227,0.0188,0.0182,0.0206,0.0204,0.0153,0.0148,0.0144,0.0145,0.0122,0.012,0.0119,0.0086,0.0086,0.0086,0,0,0,0,0,0,0.0266,0.0267,0.0257,0.0253,0.0251,0.0225,0.0231,0.0226,0.0216,0.0185,0.0179,0.0201,0.0153,0.0147,0.0131,0.0142,0.0119,0.0117,0.0086,0.0086,0.0086,0.0142,0,0,0,0,0,0,0.0266,0.0267,0.0272,0.0255,0.0251,0.0254,0.0232,0.0226,0.0216,0.0213,0.018,0.0174,0.0152,0.0135,0.013,0.0139,0.0116,0.0085,0.0086,0.0086,0.014,0.0144,0.0148,0,0,0,0,0,0.0266,0.0279,0.0272,0.0272,0.026,0.0255,0.0251,0.023,0.0217,0.0218,0.0193,0.0175,0.0134,0.0133,0.0127,0.0136,0.0085,0.0086,0.0086,0.0138,0.0144,0.0148,0,0,0,0,0,0,0.0277,0.0276,0.0268,0.0279,0.027,0.0249,0.025,0.0234,0.0215,0.0212,0.0178,0.0171,0.016,0.014,0.0141,0.0127,0.0106,0.0106,0.0148,0.0153,0.0157,0.0178,0.0114,0,0,0,0,0,0.0284,0.0296,0.0284,0.0293,0.0292,0.0271,0.0265,0.0252,0.0235,0.0226,0.0203,0.0178,0.0158,0.015,0.0129,0.0124,0.0101,0.0125,0.013,0.0133,0.0146,0.0115,0.0118,0.0088,0.0088,0.0088,0,0,0.0292,0.0291,0.0298,0.0296,0.0288,0.0296,0.0266,0.0265,0.0269,0.0223,0.0221,0.0191,0.0159,0.0152,0.0146,0.0138,0.0128,0.0134,0.0137,0.0149,0.0116,0.0119,0.0121,0.0089,0.0089,0.0089,0,0,0.0316,0.0314,0.0331,0.033,0.0325,0.0314,0.0317,0.03,0.0291,0.0283,0.0251,0.0231,0.0201,0.0183,0.0169,0.0184,0.0149,0.0174,0.0216,0.0186,0.0188,0.019,0.0161,0.016,0.0179,0.0179,0.0179,0,0.0322,0.0347,0.0334,0.035,0.0357,0.0328,0.0348,0.0336,0.0315,0.0315,0.0291,0.0249,0.0218,0.0213,0.0215,0.0195,0.0171,0.0201,0.0192,0.0193,0.0194,0.0164,0.0162,0.0182,0.0182,0.0181,0.0181,0,0.0362,0.0379,0.0391,0.0405,0.0407,0.0422,0.0409,0.0409,0.039,0.0374,0.036,0.0314,0.0291,0.0274,0.0249,0.0244,0.0222,0.0199,0.0182,0.0201,0.0167,0.0164,0.0186,0.0185,0.0184,0.0184,0,0,0.0387,0.0415,0.042,0.0441,0.0442,0.0453,0.0465,0.047,0.0485,0.0447,0.0458,0.041,0.0378,0.036,0.0321,0.0295,0.0272,0.0255,0.0252,0.0233,0.0205,0.0187,0.0182,0.0245,0.0245,0.0245,0.0179,0,0.0423,0.0474,0.0473,0.0519,0.0547,0.0533,0.0552,0.0549,0.0534,0.0536,0.0483,0.047,0.0412,0.0401,0.0365,0.0299,0.0267,0.0293,0.0185,0.0183,0.0169,0.0179,0.0197,0.014,0.0175,0.0175,0.0174,0,0.0464,0.0497,0.0553,0.0593,0.0604,0.0624,0.0656,0.0669,0.0657,0.0644,0.0613,0.0564,0.0522,0.0467,0.0363,0.0381,0.0301,0.0243,0.0239,0.0204,0.016,0.0127,0.0132,0.0169,0.0169,0.0169,0.017,0,0.0503,0.0551,0.0605,0.0619,0.0656,0.0681,0.0699,0.0704,0.0731,0.0712,0.0722,0.0647,0.0624,0.0514,0.0384,0.0372,0.0268,0.0233,0.0141,0.0138,0.0125,0.0122,0.0158,0.0158,0.0158,0.0159,0.0159,0,0.0548,0.0588,0.0631,0.0662,0.0732,0.0734,0.0798,0.0802,0.082,0.0867,0.0782,0.0793,0.0634,0.055,0.0417,0.0275,0.0286,0.0155,0.0123,0.0144,0.0144,0.0146,0.0146,0.0156,0.0157,0.0157,0.0158,0,0.0583,0.061,0.0675,0.073,0.0754,0.0805,0.0872,0.0916,0.0921,0.0979,0.0977,0.0906,0.0798,0.0631,0.0459,0.0331,0.0187,0.013,0.0167,0.0141,0.0067,0.007,0.0023,0.0022,0.0021,0.002,0.0019,0,0.061,0.0649,0.0729,0.0779,0.0808,0.0882,0.0938,0.0967,0.1021,0.1055,0.1091,0.1003,0.0957,0.0694,0.0454,0.022,0.0185,0.0076,0.0054,0.0082,0.0055,0.0059,0.0063,0.0053,0.0053,0.0053,0.0052,0,0.0662,0.0687,0.0742,0.0842,0.0913,0.1002,0.1082,0.114,0.1189,0.1234,0.1273,0.1236,0.0995,0.0756,0.0432,0.0273,0.0113,0.0063,0.0083,0.0089,0.0106,0.0081,0.0085,0.005,0.005,0.0051,0.0051,0.0051,0.0701,0.0745,0.0816,0.0911,0.0997,0.111,0.1187,0.1272,0.1369,0.1436,0.1403,0.1348,0.1085,0.0667,0.0389,0.0094,0.0111,-0.0001,0.0001,0.0004,0.0023,0.0038,-0.0027,-0.0027,-0.0027,-0.0027,-0.0028,0,0.0748,0.0797,0.0882,0.0995,0.109,0.1134,0.1276,0.1351,0.1467,0.1512,0.1532,0.1277,0.1008,0.0699,0.0266,0.0013,-0.0004,-0.0074,-0.0041,-0.0036,-0.0033,-0.0014,-0.0075,-0.0076,-0.0077,-0.0078,0,0,0.0773,0.0856,0.0894,0.1053,0.1133,0.1266,0.1351,0.146,0.1524,0.1561,0.1521,0.1455,0.1091,0.0769,0.0424,0.0169,0.0125,0.0119,0.0187,0.0272,0.0279,0.0039,0.0076,0,0,0,0,0]}],[{"header":{"parameterUnit":"m.s-1","parameterCategory":2,"la1":30.2991,"la2":30.254,"lo1":-89.0895,"lo2":-89.0444,"dy":0.0017,"dx":0.0017,"nx":28,"ny":28,"refTime":"2023-11-17T09:00:00:Z","depth":"4","parameterNumber":2,"parameterNumberName":"U-component_of_CURRENTS"},"data":[0,0,0,0,0,0,0,0,0,0,0,0,0,0,0,0,0,0,0,0,0,0,0,0,0,0,0,0,0,0,0,0,0,0,0,0,0,0,0,0,0,0,0,0,0,0,0,0,0,0,0,0,0,0,0,0,0,0,0.1411,0.1412,0,0.1465,0.1465,0.1465,0.1514,0.1515,0.1516,0.1517,0.1584,0.1585,0.1586,0,0,0,0,0,0,0,0,0,0,0,0,0,0.1356,0.1357,0.1411,0.1412,0.1413,0.1464,0.1465,0.1466,0.1514,0.1515,0.1516,0.1517,0.1584,0.1585,0.1586,0,0,0,0,0,0,0,0,0,0,0,0,0,0.139,0.1357,0.1411,0.1445,0.1449,0.1464,0.1465,0.1466,0.1514,0.1515,0.1517,0.1518,0.1584,0.1585,0.1587,0.1572,0,0,0.1591,0.1592,0,0,0,0,0,0,0,0,0.1388,0.1391,0.1439,0.1442,0.1447,0.1486,0.1471,0.1503,0.1514,0.1487,0.1517,0.1518,0.1553,0.1557,0.1561,0.1575,0.1578,0.1592,0.1593,0.1593,0.1594,0,0,0,0,0,0,0,0.1385,0.1389,0.143,0.144,0.1445,0.146,0.1465,0.1477,0.1511,0.1489,0.1493,0.1503,0.1555,0.156,0.1563,0.1579,0.1592,0.1593,0.1594,0.1595,0.1689,0.169,0,0,0,0,0,0,0.1382,0.1387,0.1428,0.1432,0.1422,0.146,0.1466,0.147,0.1511,0.1519,0.1502,0.1505,0.1556,0.1562,0.1566,0.1646,0.1593,0.1595,0.1596,0.1687,0.1689,0.1691,0,0,0,0,0,0,0.138,0.1384,0.1426,0.1413,0.1419,0.146,0.1464,0.1471,0.1509,0.1521,0.1529,0.1537,0.1558,0.1564,0.1608,0.1645,0.1595,0.1597,0.1685,0.1688,0.169,0.1745,0,0,0,0,0,0,0.1378,0.1383,0.14,0.1412,0.142,0.1455,0.1463,0.1471,0.1512,0.1517,0.1553,0.1558,0.1559,0.1606,0.161,0.1647,0.1598,0.1683,0.1686,0.1689,0.1741,0.1749,0.1756,0,0,0,0,0,0.1376,0.1385,0.14,0.1407,0.1436,0.1456,0.1461,0.1492,0.1513,0.1531,0.1561,0.1559,0.1628,0.1608,0.1613,0.1651,0.1682,0.1686,0.1689,0.1738,0.1748,0.1756,0,0,0,0,0,0,0.1371,0.1391,0.1408,0.1425,0.1451,0.1466,0.1492,0.1509,0.1546,0.1566,0.1574,0.1582,0.1637,0.1634,0.1613,0.1687,0.1656,0.1661,0.1692,0.1701,0.1708,0.1716,0.1599,0,0,0,0,0,0.1377,0.1393,0.1414,0.1434,0.1449,0.1477,0.1496,0.1519,0.1546,0.1565,0.1591,0.162,0.1648,0.1668,0.1689,0.1724,0.1729,0.1753,0.176,0.1766,0.1777,0.1815,0.1826,0.1702,0.1702,0.1702,0,0,0.1381,0.1397,0.1408,0.1435,0.1461,0.1487,0.1493,0.1532,0.1565,0.1565,0.1628,0.1649,0.1664,0.171,0.1734,0.1716,0.1805,0.1771,0.1776,0.1783,0.182,0.1832,0.1842,0.1705,0.1704,0.1704,0,0,0.1391,0.1415,0.1433,0.1456,0.1501,0.1517,0.1535,0.1572,0.1605,0.1651,0.1671,0.1715,0.1749,0.1774,0.1786,0.1844,0.1844,0.1857,0.1899,0.1936,0.1946,0.1956,0.1979,0.199,0.1858,0.1858,0.1858,0,0.1404,0.1421,0.1443,0.1468,0.1495,0.1534,0.1562,0.1596,0.1647,0.1678,0.1682,0.1763,0.1778,0.1837,0.1863,0.1862,0.1879,0.1863,0.1945,0.1955,0.1963,0.1984,0.1996,0.1861,0.1861,0.186,0.186,0,0.1415,0.1447,0.1462,0.1507,0.1537,0.157,0.1615,0.1662,0.1704,0.1734,0.1811,0.1836,0.1884,0.1899,0.19,0.1976,0.1968,0.1951,0.1922,0.1979,0.1998,0.2008,0.1866,0.1864,0.1864,0.1863,0,0,0.1401,0.1459,0.1471,0.1497,0.1562,0.1583,0.1651,0.171,0.1761,0.1818,0.1879,0.1937,0.1966,0.1983,0.2,0.2034,0.211,0.2028,0.2028,0.2048,0.2194,0.2053,0.205,0.2113,0.2115,0.2117,0.2182,0,0.1412,0.1455,0.1488,0.1543,0.1567,0.1627,0.1681,0.1747,0.1805,0.1875,0.1926,0.1992,0.1993,0.2031,0.207,0.2106,0.2142,0.2094,0.2138,0.2139,0.2004,0.2059,0.2124,0.219,0.2193,0.2194,0.2196,0,0.1409,0.1441,0.149,0.1557,0.1577,0.1623,0.1717,0.1774,0.1878,0.1928,0.2007,0.2048,0.2135,0.2114,0.2209,0.2184,0.2201,0.2214,0.2216,0.2073,0.2017,0.2122,0.2215,0.2213,0.2212,0.2211,0.2209,0,0.137,0.144,0.148,0.1503,0.1587,0.1635,0.1695,0.1798,0.1857,0.198,0.2035,0.2126,0.2192,0.2233,0.2279,0.2257,0.2362,0.2325,0.2211,0.2202,0.2284,0.2273,0.2384,0.2384,0.2384,0.2384,0.2383,0,0.1346,0.1382,0.147,0.149,0.1551,0.1624,0.1708,0.1783,0.1897,0.1968,0.2072,0.2131,0.223,0.2297,0.2311,0.2299,0.2392,0.223,0.2213,0.2305,0.2296,0.2291,0.228,0.2386,0.2385,0.2385,0.2385,0,0.1291,0.1348,0.1398,0.1497,0.1533,0.1584,0.1711,0.1762,0.1891,0.199,0.2037,0.2169,0.225,0.2322,0.2395,0.233,0.2334,0.2305,0.2414,0.24,0.2138,0.2129,0.217,0.2166,0.2162,0.2159,0.2156,0,0.1259,0.128,0.1393,0.1426,0.1477,0.1564,0.1616,0.1749,0.1805,0.1989,0.2019,0.2154,0.2225,0.2218,0.2298,0.2313,0.2285,0.2267,0.2184,0.214,0.2119,0.2116,0.2112,0.215,0.215,0.2149,0.2148,0,0.1196,0.1254,0.1296,0.137,0.1431,0.1484,0.1577,0.1605,0.1757,0.1892,0.1953,0.1997,0.2084,0.2126,0.2166,0.2168,0.2263,0.2227,0.2233,0.2156,0.2116,0.2099,0.2099,0.2135,0.2137,0.2138,0.2139,0,0.1157,0.1173,0.124,0.1293,0.1362,0.138,0.1441,0.1503,0.1574,0.1774,0.1789,0.1932,0.2062,0.2052,0.2085,0.2083,0.2037,0.1952,0.1972,0.1987,0.1895,0.1816,0.1737,0,0,0,0,0,0.1105,0.111,0.1152,0.1196,0.1259,0.1299,0.1397,0.146,0.1609,0.1606,0.1693,0.1762,0.1814,0.1883,0.1842,0.1997,0.2042,0.1939,0.1954,0.2064,0.2079,0.1987,0,0,0,0,0,0,0.1068,0.1103,0.1115,0.11,0.1115,0.1164,0.122,0.1319,0.1325,0.1488,0.1525,0.1651,0.1727,0.1824,0.1809,0.183,0.18,0.203,0.2025,0.2055,0.2069,0.2081,0.1991,0,0,0,0,0]},{"header":{"parameterUnit":"m.s-1","parameterCategory":2,"la1":30.2991,"la2":30.254,"lo1":-89.0895,"lo2":-89.0444,"dy":0.0017,"dx":0.0017,"nx":28,"ny":28,"refTime":"2023-11-17T09:00:00:Z","depth":"4","parameterNumber":3,"parameterNumberName":"V-component_of_CURRENTS"},"data":[0,0,0,0,0,0,0,0,0,0,0,0,0,0,0,0,0,0,0,0,0,0,0,0,0,0,0,0,0,0,0,0,0,0,0,0,0,0,0,0,0,0,0,0,0,0,0,0,0,0,0,0,0,0,0,0,0,0,0.0265,0.0264,0,0.0239,0.0239,0.0238,0.0218,0.0217,0.0217,0.0217,0.0179,0.0178,0.0177,0,0,0,0,0,0,0,0,0,0,0,0,0,0.0256,0.0257,0.0265,0.0264,0.0264,0.0239,0.0239,0.0238,0.0218,0.0217,0.0217,0.0217,0.0179,0.0178,0.0177,0,0,0,0,0,0,0,0,0,0,0,0,0,0.0248,0.0257,0.0265,0.0251,0.025,0.0239,0.0238,0.0238,0.0218,0.0217,0.0217,0.0217,0.0179,0.0178,0.0177,0.0173,0,0,0.0173,0.0172,0,0,0,0,0,0,0,0,0.0248,0.0248,0.0254,0.0252,0.0251,0.0232,0.0221,0.0216,0.0218,0.0229,0.0217,0.0217,0.0196,0.0193,0.0188,0.0172,0.017,0.0173,0.0172,0.0171,0.0171,0,0,0,0,0,0,0,0.0249,0.0249,0.0254,0.0253,0.0251,0.0233,0.0232,0.022,0.0214,0.0228,0.0227,0.0225,0.0195,0.019,0.0187,0.0169,0.0173,0.0171,0.0171,0.017,0.0153,0.0153,0,0,0,0,0,0,0.0256,0.025,0.0255,0.0253,0.0249,0.0233,0.0232,0.0238,0.0214,0.021,0.0225,0.0224,0.0192,0.0189,0.0186,0.0195,0.0171,0.017,0.0169,0.0152,0.0153,0.0153,0,0,0,0,0,0,0.0256,0.0257,0.0256,0.0251,0.0249,0.0234,0.024,0.0237,0.0236,0.0212,0.0208,0.0228,0.0192,0.0188,0.0183,0.0192,0.0169,0.0168,0.0152,0.0153,0.0153,0.0203,0,0,0,0,0,0,0.0256,0.0257,0.0266,0.0251,0.025,0.0257,0.024,0.0237,0.0235,0.0234,0.0213,0.0209,0.0191,0.0185,0.0182,0.019,0.0167,0.0152,0.0152,0.0153,0.0201,0.0205,0.0209,0,0,0,0,0,0.0256,0.0271,0.0266,0.0267,0.0262,0.0257,0.0255,0.0242,0.0236,0.024,0.0227,0.021,0.0187,0.0185,0.0181,0.0189,0.0151,0.0152,0.0153,0.0199,0.0204,0.0209,0,0,0,0,0,0,0.0269,0.027,0.0265,0.0279,0.0271,0.0254,0.0258,0.0248,0.0241,0.0241,0.0216,0.0212,0.021,0.0193,0.0191,0.0184,0.0165,0.0165,0.0202,0.0206,0.021,0.0225,0.0166,0,0,0,0,0,0.0278,0.029,0.0281,0.0291,0.0291,0.0275,0.0273,0.0265,0.0254,0.0251,0.0236,0.022,0.0209,0.0203,0.019,0.0189,0.0164,0.019,0.0194,0.0197,0.0205,0.0173,0.0175,0.0156,0.0156,0.0156,0,0,0.0285,0.0287,0.0294,0.0295,0.0289,0.0296,0.0274,0.0275,0.0282,0.0248,0.0254,0.0234,0.0211,0.021,0.0207,0.0198,0.0189,0.0198,0.0201,0.0208,0.0174,0.0176,0.0178,0.0156,0.0156,0.0156,0,0,0.0306,0.031,0.0326,0.0326,0.0322,0.0314,0.0318,0.0306,0.0303,0.0304,0.0282,0.027,0.0252,0.0239,0.0229,0.0247,0.021,0.0239,0.0272,0.0241,0.0242,0.0243,0.0212,0.021,0.0242,0.0242,0.0242,0,0.0314,0.0336,0.0328,0.0342,0.0349,0.0327,0.0344,0.0338,0.0326,0.0328,0.0313,0.0288,0.0267,0.0266,0.0271,0.0256,0.0231,0.0257,0.0246,0.0247,0.0247,0.0214,0.0211,0.0244,0.0244,0.0244,0.0243,0,0.0345,0.0363,0.0373,0.0387,0.0392,0.0403,0.0396,0.0399,0.039,0.0379,0.0374,0.0343,0.0328,0.0317,0.03,0.0294,0.0273,0.0255,0.0236,0.0252,0.0217,0.0212,0.0248,0.0247,0.0246,0.0245,0,0,0.0363,0.039,0.0395,0.0414,0.0419,0.0429,0.0443,0.045,0.0463,0.044,0.045,0.0422,0.0398,0.0386,0.0357,0.0331,0.0307,0.0298,0.0296,0.0271,0.0236,0.0216,0.0209,0.0284,0.0284,0.0283,0.0211,0,0.039,0.0432,0.0437,0.0478,0.0499,0.0494,0.0513,0.0515,0.0505,0.0508,0.0471,0.0466,0.0426,0.0421,0.0388,0.033,0.0299,0.0328,0.0222,0.0219,0.0202,0.0205,0.0282,0.0207,0.0206,0.0206,0.0205,0,0.0418,0.0446,0.0495,0.0534,0.0544,0.0565,0.0594,0.0609,0.0602,0.0594,0.0573,0.0537,0.0504,0.0464,0.037,0.0389,0.0321,0.0269,0.0264,0.0227,0.0191,0.0187,0.0197,0.0198,0.0198,0.0199,0.0199,0,0.044,0.0486,0.0532,0.0545,0.0583,0.0609,0.063,0.0636,0.066,0.0649,0.0654,0.0597,0.0577,0.0485,0.0375,0.0371,0.0262,0.024,0.0156,0.0154,0.0171,0.0171,0.0171,0.0171,0.0171,0.0172,0.0172,0,0.0466,0.0503,0.055,0.0575,0.0637,0.0649,0.0705,0.0713,0.0731,0.0761,0.0704,0.0701,0.058,0.0501,0.0393,0.0263,0.0271,0.0164,0.0135,0.0193,0.0196,0.0168,0.0168,0.0169,0.0169,0.017,0.017,0,0.0481,0.0511,0.0568,0.0624,0.065,0.0696,0.0765,0.0799,0.0808,0.0845,0.0845,0.078,0.0675,0.0542,0.0391,0.0293,0.0167,0.0117,0.0193,0.0169,0.0074,0.0078,0.0018,0.0017,0.0016,0.0015,0.0014,0,0.0492,0.0525,0.0607,0.065,0.0681,0.0752,0.0802,0.0838,0.0874,0.0889,0.0904,0.0822,0.0758,0.0532,0.0385,0.0175,0.0141,0.007,0.0069,0.0082,0.0059,0.0064,0.007,0.0013,0.0012,0.0012,0.0012,0,0.0514,0.0546,0.0593,0.0683,0.0748,0.0826,0.0895,0.0926,0.0968,0.0977,0.0947,0.0832,0.0712,0.0532,0.0368,0.0216,0.0114,0.0058,0.0059,0.0057,0.0074,0.0053,0.006,0.0008,0.0009,0.0009,0.0009,0,0.053,0.0565,0.0631,0.0709,0.0796,0.0874,0.0911,0.0952,0.099,0.0998,0.0984,0.0856,0.0784,0.0552,0.0403,0.025,0.0206,0.0147,0.0143,0.0145,0.0198,0.0239,0.0202,0,0,0,0,0,0.0542,0.0583,0.0652,0.0739,0.0824,0.0878,0.0964,0.0992,0.1029,0.1013,0.1001,0.0887,0.0665,0.057,0.0414,0.0371,0.0175,0.0181,0.0103,-0.0013,-0.0008,0.003,0,0,0,0,0,0,0.0549,0.0614,0.0647,0.0752,0.0812,0.0912,0.0968,0.0994,0.0983,0.0992,0.0878,0.0832,0.0617,0.0752,0.0405,0.036,0.0285,0.0084,0.008,-0.0015,-0.0011,-0.0008,0.0034,0,0,0,0,0]}]]